W6DRZ Weather Reports


Display with metric or nautical units.
time (UTC)temp
F
wind
direction
speed
MPH
gust
MPH
rain 1hr
in
rain 24hr
in
rain mn
in
humidity
%
barometer
mb
20260503202520 60 284 8.0 16.0 0.00 0.00 0.00 68 1012.9
20260503202019 60 247 7.0 16.0 0.00 0.00 0.00 68 1012.9
20260503201520 60 296 6.0 15.0 0.00 0.00 0.00 68 1012.9
20260503201021 61 197 6.0 14.0 0.00 0.00 0.00 67 1012.9
20260503200525 61 177 8.0 14.0 0.00 0.00 0.00 66 1012.8
20260503200023 60 221 9.0 14.0 0.00 0.00 0.00 65 1012.8
20260503195518 61 273 7.0 15.0 0.00 0.00 0.00 65 1012.7
20260503195018 61 255 5.0 15.0 0.00 0.00 0.00 66 1012.8
20260503194515 62 180 4.0 10.0 0.00 0.00 0.00 65 1013.0
20260503194334 62 227 4.0 9.0 0.00 0.00 0.00 65 1012.9
20260503193512 62 212 5.0 11.0 0.00 0.00 0.00 66 1013.0
20260503193013 60 260 6.0 14.0 0.00 0.00 0.00 68 1013.0
20260503192512 60 264 7.0 14.0 0.00 0.00 0.00 65 1012.9
20260503192010 60 260 6.0 10.0 0.00 0.00 0.00 67 1012.9
20260503191507 60 286 5.0 10.0 0.00 0.00 0.00 67 1013.1
20260503191006 61 227 5.0 9.0 0.00 0.00 0.00 64 1013.1
20260503190509 61 234 6.0 13.0 0.00 0.00 0.00 65 1013.1
20260503190124 61 290 5.0 13.0 0.00 0.00 0.00 66 1013.1
20260503185008 61 221 6.0 12.0 0.00 0.00 0.00 62 1013.0
20260503184505 62 169 7.0 13.0 0.00 0.00 0.00 64 1013.1
20260503184333 61 207 6.0 13.0 0.00 0.00 0.00 65 1013.1
20260503183504 60 205 6.0 11.0 0.00 0.00 0.00 67 1013.2
20260503183004 60 196 5.0 11.0 0.00 0.00 0.00 66 1013.2
20260503182458 60 234 5.0 10.0 0.00 0.00 0.00 67 1013.1
20260503181952 60 214 5.0 10.0 0.00 0.00 0.00 66 1013.1
20260503181549 59 284 5.0 10.0 0.00 0.00 0.00 67 1013.0
20260503180442 60 209 5.0 13.0 0.00 0.00 0.00 69 1013.0
20260503175936 59 202 5.0 14.0 0.00 0.00 0.00 69 1013.0
20260503175437 60 272 6.0 14.0 0.00 0.00 0.00 69 1013.0
20260503174939 59 296 5.0 12.0 0.00 0.00 0.00 70 1012.9
20260503174432 58 276 5.0 11.0 0.00 0.00 0.00 72 1013.1
20260503174306 58 268 6.0 11.0 0.00 0.00 0.00 73 1012.9
20260503173431 58 219 6.0 11.0 0.00 0.00 0.00 72 1012.9
20260503172933 57 298 6.0 11.0 0.00 0.00 0.00 73 1013.0
20260503172433 58 265 7.0 13.0 0.00 0.00 0.00 72 1012.9
20260503171931 58 250 6.0 14.0 0.00 0.00 0.00 74 1012.9
20260503171432 58 284 4.0 14.0 0.00 0.00 0.00 75 1013.0
20260503171051 58 196 4.0 10.0 0.00 0.00 0.00 74 1013.0
20260503170314 58 271 3.0 9.0 0.00 0.00 0.00 77 1013.0
20260503150850 54 171 0.0 1.0 0.00 0.00 0.00 87 1012.5
20260503150353 53 171 0.0 2.0 0.00 0.00 0.00 87 1012.4
20260503131340 52 279 0.0 0.0 0.00 0.00 0.00 88 1011.2
20260503130838 52 279 0.0 0.0 0.00 0.00 0.00 87 1011.0
20260503130337 52 279 0.0 0.0 0.00 0.00 0.00 87 1011.1
20260503130219 52 279 0.0 0.0 0.00 0.00 0.00 87 1010.9
20260503120222 53 225 0.0 0.0 0.00 0.00 0.00 86 1011.0
20260503110704 53 225 1.0 3.0 0.00 0.00 0.00 86 1011.0
20260503110147 53 313 2.0 4.0 0.00 0.00 0.00 86 1011.1
20260503090234 53 307 4.0 11.0 0.00 0.00 0.00 85 1011.2
20260503081239 53 254 2.0 3.0 0.00 0.00 0.00 84 1011.9
20260503081118 53 250 1.0 3.0 0.00 0.00 0.00 84 1011.9
20260503080241 53 290 1.0 3.0 0.00 0.00 0.00 84 1011.9
20260503072731 53 264 2.0 7.0 0.00 0.00 0.00 84 1012.0
20260503072230 53 276 2.0 5.0 0.00 0.00 0.00 84 1012.0
20260503071719 53 259 2.0 5.0 0.00 0.00 0.00 84 1012.0
20260503071212 53 294 2.0 6.0 0.00 0.00 0.00 84 1011.9
20260503070714 53 292 2.0 6.0 0.00 0.00 0.00 84 1011.9
20260503070219 53 304 2.0 6.0 0.00 0.00 0.00 84 1012.0
20260503054645 53 286 6.0 12.0 0.00 0.00 0.00 83 1012.3
20260503054144 53 247 6.0 13.0 0.00 0.00 0.00 83 1012.3
20260503053648 53 300 6.0 13.0 0.00 0.00 0.00 83 1012.3
20260503053144 53 272 7.0 12.0 0.00 0.00 0.00 84 1012.2
20260503052645 53 238 7.0 12.0 0.00 0.00 0.00 83 1012.4
20260503052518 53 268 7.0 13.0 0.00 0.00 0.00 83 1012.3
20260503051948 53 275 9.0 14.0 0.00 0.00 0.00 83 1012.4
20260503051300 53 294 9.0 14.0 0.00 0.00 0.00 82 1012.4
20260503050145 53 262 10.0 16.0 0.00 0.00 0.00 83 1012.3
20260503045644 53 277 10.0 16.0 0.00 0.00 0.00 83 1012.3
20260503045144 53 277 9.0 16.0 0.00 0.00 0.00 83 1012.4
20260503044644 53 265 8.0 14.0 0.00 0.00 0.00 83 1012.3
20260503044145 53 276 8.0 14.0 0.00 0.00 0.00 83 1012.3
20260503044037 53 269 8.0 14.0 0.00 0.00 0.00 83 1012.3
20260503043143 53 281 8.0 14.0 0.00 0.00 0.00 83 1012.3
20260503042643 53 261 8.0 14.0 0.00 0.00 0.00 83 1012.3
20260503042143 53 282 8.0 15.0 0.00 0.00 0.00 83 1012.2
20260503042031 53 272 9.0 15.0 0.00 0.00 0.00 83 1012.2
20260503041301 53 250 9.0 18.0 0.00 0.00 0.00 82 1012.2
20260503040144 53 302 10.0 14.0 0.00 0.00 0.00 82 1012.0
20260503035643 53 284 10.0 16.0 0.00 0.00 0.00 81 1012.1
20260503035143 53 288 10.0 17.0 0.00 0.00 0.00 81 1012.0
20260503034643 53 267 10.0 17.0 0.00 0.00 0.00 81 1012.0
20260503034147 53 252 10.0 18.0 0.00 0.00 0.00 82 1012.0
20260503033641 53 271 11.0 19.0 0.00 0.00 0.00 82 1012.0
20260503033141 53 269 11.0 22.0 0.00 0.00 0.00 82 1011.9
20260503032642 53 254 10.0 22.0 0.00 0.00 0.00 82 1011.9
20260503032142 53 265 9.0 15.0 0.00 0.00 0.00 82 1011.9
20260503031642 53 261 10.0 21.0 0.00 0.00 0.00 82 1011.8
20260503031140 53 270 12.0 21.0 0.00 0.00 0.00 82 1011.8
20260503030637 53 273 12.0 20.0 0.00 0.00 0.00 82 1011.7
20260503030136 53 294 12.0 20.0 0.00 0.00 0.00 81 1011.5
20260503030019 53 284 12.0 21.0 0.00 0.00 0.00 81 1011.5
20260503025137 53 275 12.0 21.0 0.00 0.00 0.00 81 1011.2
20260503024642 53 311 12.0 20.0 0.00 0.00 0.00 81 1011.2
20260503024136 53 246 11.0 19.0 0.00 0.00 0.00 81 1011.2
20260503023637 54 259 10.0 20.0 0.00 0.00 0.00 81 1011.1
20260503023537 54 267 12.0 23.0 0.00 0.00 0.00 81 1011.0
20260503022636 54 236 12.0 23.0 0.00 0.00 0.00 80 1011.1
20260503022136 54 273 11.0 21.0 0.00 0.00 0.00 80 1011.0
20260503021636 54 297 11.0 20.0 0.00 0.00 0.00 79 1011.0
20260503021136 54 265 12.0 20.0 0.00 0.00 0.00 79 1011.1
20260503020636 54 248 11.0 19.0 0.00 0.00 0.00 79 1011.2
20260503020245 55 281 11.0 24.0 0.00 0.00 0.00 78 1011.2
20260503020206 55 289 11.0 19.0 0.00 0.00 0.00 78 1011.1
20260503014636 55 267 10.0 19.0 0.00 0.00 0.00 77 1011.4
20260503014137 55 248 10.0 19.0 0.00 0.00 0.00 77 1011.2
20260503014006 56 281 9.0 21.0 0.00 0.00 0.00 77 1011.2
20260503013136 56 323 9.0 21.0 0.00 0.00 0.00 77 1011.2
20260503012635 56 283 9.0 17.0 0.00 0.00 0.00 76 1011.2
20260503012135 56 283 8.0 15.0 0.00 0.00 0.00 76 1011.2
20260503011636 57 270 7.0 15.0 0.00 0.00 0.00 76 1011.4
20260503011134 57 309 8.0 16.0 0.00 0.00 0.00 76 1011.4
20260503010633 57 289 8.0 16.0 0.00 0.00 0.00 76 1011.2
20260503010524 57 298 7.0 14.0 0.00 0.00 0.00 75 1011.4
20260503010026 57 256 8.0 18.0 0.00 0.00 0.00 75 1011.2
20260503005133 57 242 9.0 21.0 0.00 0.00 0.00 75 1011.2
20260503004633 58 275 10.0 21.0 0.00 0.00 0.00 74 1011.4
20260503004129 58 247 11.0 20.0 0.00 0.00 0.00 75 1011.2
20260503003629 58 283 12.0 20.0 0.00 0.00 0.00 75 1011.4
20260503003131 57 272 12.0 23.0 0.00 0.00 0.00 76 1011.5
20260503002630 57 274 11.0 23.0 0.00 0.00 0.00 76 1011.6
20260503002523 57 258 10.0 20.0 0.00 0.00 0.00 76 1011.5
20260503001803 57 280 10.0 19.0 0.00 0.00 0.00 75 1011.7
20260503001023 59 249 8.0 19.0 0.00 0.00 0.00 73 1011.7
20260503000258 60 263 8.0 19.0 0.00 0.00 0.00 73 1011.7
20260502235130 60 272 10.0 17.0 0.00 0.00 0.00 73 1011.7
20260502235004 60 217 11.0 17.0 0.00 0.00 0.00 74 1011.6
20260502234131 60 255 11.0 18.0 0.00 0.00 0.00 73 1011.7
20260502233629 60 250 11.0 19.0 0.00 0.00 0.00 73 1011.7
20260502233548 60 274 11.0 19.0 0.00 0.00 0.00 72 1011.8
20260502232630 61 223 10.0 16.0 0.00 0.00 0.00 72 1011.8
20260502232130 61 263 10.0 16.0 0.00 0.00 0.00 71 1011.7
20260502231630 61 254 10.0 17.0 0.00 0.00 0.00 71 1011.9
20260502231129 61 234 11.0 19.0 0.00 0.00 0.00 72 1011.9
20260502230629 61 309 11.0 19.0 0.00 0.00 0.00 72 1011.9
20260502230130 61 281 12.0 19.0 0.00 0.00 0.00 72 1012.0
20260502225629 61 265 11.0 19.0 0.00 0.00 0.00 71 1012.1
20260502225129 61 260 12.0 19.0 0.00 0.00 0.00 72 1012.2
20260502224630 62 302 13.0 21.0 0.00 0.00 0.00 71 1012.2
20260502224131 61 274 12.0 21.0 0.00 0.00 0.00 72 1012.2
20260502224008 62 237 11.0 18.0 0.00 0.00 0.00 69 1012.2
20260502223256 63 271 8.0 18.0 0.00 0.00 0.00 69 1012.2
20260502222526 61 221 7.0 15.0 0.00 0.00 0.00 70 1012.3
20260502221625 61 236 8.0 15.0 0.00 0.00 0.00 71 1012.5
20260502221525 61 277 8.0 14.0 0.00 0.00 0.00 70 1012.5
20260502220623 62 279 9.0 16.0 0.00 0.00 0.00 71 1012.7
20260502220124 61 274 10.0 16.0 0.00 0.00 0.00 71 1012.7
20260502215623 61 292 8.0 16.0 0.00 0.00 0.00 72 1012.7
20260502215135 61 270 9.0 15.0 0.00 0.00 0.00 72 1012.7
20260502214625 61 241 10.0 15.0 0.00 0.00 0.00 72 1012.8
20260502214123 61 231 10.0 16.0 0.00 0.00 0.00 70 1012.8
20260502213620 62 279 10.0 18.0 0.00 0.00 0.00 71 1012.9
20260502213117 61 279 9.0 18.0 0.00 0.00 0.00 71 1012.8
20260502212623 61 269 10.0 20.0 0.00 0.00 0.00 73 1012.8
20260502212119 61 225 11.0 20.0 0.00 0.00 0.00 72 1012.9
20260502211944 60 253 9.0 18.0 0.00 0.00 0.00 73 1013.0
20260502211115 60 278 11.0 19.0 0.00 0.00 0.00 73 1013.0
20260502210617 60 279 12.0 19.0 0.00 0.00 0.00 74 1013.1
20260502210115 61 273 11.0 19.0 0.00 0.00 0.00 73 1013.2
20260502205616 61 260 8.0 19.0 0.00 0.00 0.00 73 1013.2
20260502205117 60 239 8.0 17.0 0.00 0.00 0.00 75 1013.3
20260502204613 60 270 8.0 17.0 0.00 0.00 0.00 74 1013.3
20260502204114 60 263 8.0 17.0 0.00 0.00 0.00 75 1013.4
20260502204003 60 277 9.0 16.0 0.00 0.00 0.00 74 1013.5
20260502203111 61 285 9.0 18.0 0.00 0.00 0.00 74 1013.5
20260502202959 60 321 9.0 18.0 0.00 0.00 0.00 76 1013.5